Location: Unspecified
(0.0000°N, 0.0000°E)
Time: 23:52:25
(UTC+00:00)

Vanguard 2 - Pass Details

Date: 02 October 2020
Orbit: 554 x 2937 km, 32.9° (Epoch: 28 October)

Event Time Altitude Azimuth Distance (km) Brightness Sun altitude
Rises 20:51:49 0° 220° (SW) 6,309 12.6 -45.5°
Reaches altitude 10° 20:56:33 10° 211° (SSW) 5,519 12.1 -46.7°
Enters shadow 21:08:31 33° 168° (SSE) 4,180 11.0 -49.7°
Maximum altitude 21:11:34 34° 152° (SSE) 4,090 - -50.4°
Drops below altitude 10° 21:25:48 10° 93° (E) 5,304 - -54.0°
Sets 21:30:08 0° 84° (E) 6,050 - -55.1°
